{"data":{"norad_id":65182,"epoch":"2026-09-20T21:24:37.894464Z","epoch_age_seconds":86337,"freshness":"FRESH","line1":"1 65182U 25175J   26263.89210526  .00013352  00000+0  41524-3 0  9996","line2":"2 65182  97.2837 132.8780 0001240  80.9537 279.1846 15.33440733 62196","mean_motion":15.33440733,"eccentricity":0.000124,"inclination_deg":97.2837,"raan_deg":132.878,"arg_perigee_deg":80.9537,"mean_anomaly_deg":279.1846,"bstar":0.00041524,"rev_number":6219,"period_min":93.906465963168,"perigee_km":464.70725218159,"apogee_km":466.40448801337,"semimajor_km":6843.6928700975,"source":"CELESTRAK","updated_at":"2026-09-21T09:00:35.528961Z"}}